Time,TemperatureF,DewpointF,PressureIn,WindDirection,WindDirectionDegrees,WindSpeedMPH,WindSpeedGustMPH,Humidity,HourlyPrecipIn,Conditions,Clouds,dailyrainin,SoftwareType,DateUTC
2013-07-05 00:01:00,74.7,73.2,30.07,SSE,153,0.0,0.0,95,0.00,,,0.00,Wunderground v.1.15,2013-07-05 04:01:00,
2013-07-05 00:02:00,74.7,73.2,30.07,SSE,153,0.0,0.0,95,0.00,,,0.00,Wunderground v.1.15,2013-07-05 04:02:00,
2013-07-05 00:03:00,74.7,73.2,30.07,SSE,153,0.0,0.0,95,0.00,,,0.00,Wunderground v.1.15,2013-07-05 04:03:00,
2013-07-05 00:04:00,74.7,73.2,30.07,SSE,153,0.0,0.0,95,0.00,,,0.00,Wunderground v.1.15,2013-07-05 04:04:00,
2013-07-05 00:05:00,74.6,73.1,30.07,SSE,153,0.0,0.0,95,0.00,,,0.00,Wunderground v.1.15,2013-07-05 04:05:00,
2013-07-05 00:11:00,74.6,73.1,30.07,SSE,153,0.0,0.0,95,0.00,,,0.00,Wunderground v.1.15,2013-07-05 04:11:00,
2013-07-05 00:16:00,74.4,72.9,30.07,SSE,153,0.0,0.0,95,0.00,,,0.00,Wunderground v.1.15,2013-07-05 04:16:00,
2013-07-05 00:21:00,74.4,72.9,30.07,SSE,153,0.0,0.0,95,0.00,,,0.00,Wunderground v.1.15,2013-07-05 04:21:00,
2013-07-05 00:27:00,74.4,72.9,30.07,SSE,153,0.0,0.0,95,0.00,,,0.00,Wunderground v.1.15,2013-07-05 04:27:00,
2013-07-05 00:33:00,74.2,73.0,30.07,SSE,153,0.0,0.0,96,0.00,,,0.00,Wunderground v.1.15,2013-07-05 04:33:00,
2013-07-05 00:39:00,74.0,72.8,30.07,SSE,153,0.0,0.0,96,0.00,,,0.00,Wunderground v.1.15,2013-07-05 04:39:00,
2013-07-05 00:45:00,73.9,72.7,30.07,SSE,153,0.0,0.0,96,0.00,,,0.00,Wunderground v.1.15,2013-07-05 04:45:00,
2013-07-05 00:51:00,73.9,72.7,30.07,SSE,153,0.0,0.0,96,0.00,,,0.00,Wunderground v.1.15,2013-07-05 04:51:00,
2013-07-05 00:56:00,73.9,73.0,30.07,SSE,153,0.0,0.0,97,0.00,,,0.00,Wunderground v.1.15,2013-07-05 04:56:00,
2013-07-05 01:01:00,73.9,73.0,30.07,SSE,153,0.0,0.0,97,0.00,,,0.00,Wunderground v.1.15,2013-07-05 05:01:00,
2013-07-05 01:07:00,73.9,72.7,30.07,SSE,153,0.0,0.0,96,0.00,,,0.00,Wunderground v.1.15,2013-07-05 05:07:00,
2013-07-05 01:12:00,73.7,72.5,30.07,SSE,153,0.0,0.0,96,0.00,,,0.00,Wunderground v.1.15,2013-07-05 05:12:00,
2013-07-05 01:18:00,73.5,72.3,30.07,SSE,153,0.0,0.0,96,0.00,,,0.00,Wunderground v.1.15,2013-07-05 05:18:00,
2013-07-05 01:23:00,73.7,72.8,30.07,SSE,153,0.0,0.0,97,0.00,,,0.00,Wunderground v.1.15,2013-07-05 05:23:00,
2013-07-05 01:29:00,74.0,73.1,30.07,SSE,153,0.0,0.0,97,0.00,,,0.00,Wunderground v.1.15,2013-07-05 05:29:00,
2013-07-05 01:34:00,74.4,72.6,30.07,SSE,153,0.0,0.0,94,0.00,,,0.00,Wunderground v.1.15,2013-07-05 05:34:00,
2013-07-05 01:40:00,74.6,72.4,30.07,SSE,153,0.0,0.0,93,0.00,,,0.00,Wunderground v.1.15,2013-07-05 05:40:00,
2013-07-05 01:45:00,74.7,72.2,30.07,SSE,153,0.0,0.0,92,0.00,,,0.00,Wunderground v.1.15,2013-07-05 05:45:00,
2013-07-05 01:50:00,74.9,72.1,30.07,SSE,153,0.0,0.0,91,0.00,,,0.00,Wunderground v.1.15,2013-07-05 05:50:00,
2013-07-05 01:55:00,74.7,72.2,30.07,SSE,153,0.0,0.0,92,0.00,,,0.00,Wunderground v.1.15,2013-07-05 05:55:00,
2013-07-05 02:01:00,74.6,72.1,30.07,SSE,153,0.0,0.0,92,0.00,,,0.00,Wunderground v.1.15,2013-07-05 06:01:00,
2013-07-05 02:06:00,74.4,72.2,30.07,SSE,153,0.0,0.0,93,0.00,,,0.00,Wunderground v.1.15,2013-07-05 06:06:00,
2013-07-05 02:11:00,74.4,72.2,30.07,SSE,153,0.0,0.0,93,0.00,,,0.00,Wunderground v.1.15,2013-07-05 06:11:00,
2013-07-05 02:16:00,74.2,72.0,30.07,SSE,153,0.0,0.0,93,0.00,,,0.00,Wunderground v.1.15,2013-07-05 06:16:00,
2013-07-05 02:21:00,73.9,72.1,30.07,SSE,153,0.0,0.0,94,0.00,,,0.00,Wunderground v.1.15,2013-07-05 06:21:00,
2013-07-05 02:26:00,73.9,72.1,30.07,SSE,153,0.0,0.0,94,0.00,,,0.00,Wunderground v.1.15,2013-07-05 06:26:00,
2013-07-05 02:32:00,73.7,71.9,30.07,SSE,153,0.0,0.0,94,0.00,,,0.00,Wunderground v.1.15,2013-07-05 06:32:00,
2013-07-05 02:37:00,73.7,72.2,30.07,SSE,153,0.0,0.0,95,0.00,,,0.00,Wunderground v.1.15,2013-07-05 06:37:00,
2013-07-05 02:42:00,73.5,72.3,30.07,SSE,153,0.0,0.0,96,0.00,,,0.00,Wunderground v.1.15,2013-07-05 06:42:00,
2013-07-05 02:47:00,73.3,72.1,30.07,SSE,155,0.0,0.0,96,0.00,,,0.00,Wunderground v.1.15,2013-07-05 06:47:00,
2013-07-05 02:52:00,73.2,72.0,30.07,SSE,155,0.0,0.0,96,0.00,,,0.00,Wunderground v.1.15,2013-07-05 06:52:00,
2013-07-05 02:57:00,72.7,71.5,30.08,SSE,158,0.0,0.0,96,0.00,,,0.00,Wunderground v.1.15,2013-07-05 06:57:00,
2013-07-05 03:03:00,72.5,71.3,30.08,SSE,155,0.0,0.0,96,0.00,,,0.00,Wunderground v.1.15,2013-07-05 07:03:00,
2013-07-05 03:08:00,72.1,71.2,30.08,SSE,155,0.0,0.0,97,0.00,,,0.00,Wunderground v.1.15,2013-07-05 07:08:00,
2013-07-05 03:13:00,72.1,71.5,30.08,SSE,155,0.0,0.0,98,0.00,,,0.00,Wunderground v.1.15,2013-07-05 07:13:00,
2013-07-05 03:18:00,72.1,71.2,30.08,SSE,153,0.0,0.0,97,0.00,,,0.00,Wunderground v.1.15,2013-07-05 07:18:00,
2013-07-05 03:23:00,72.1,71.5,30.08,SSE,153,0.0,0.0,98,0.00,,,0.00,Wunderground v.1.15,2013-07-05 07:23:00,
2013-07-05 03:28:00,72.0,71.4,30.07,SSE,153,0.0,0.0,98,0.00,,,0.00,Wunderground v.1.15,2013-07-05 07:28:00,
2013-07-05 03:33:00,72.0,71.4,30.07,SSE,153,0.0,0.0,98,0.00,,,0.00,Wunderground v.1.15,2013-07-05 07:33:00,
2013-07-05 03:38:00,72.0,71.4,30.07,SSE,153,0.0,0.0,98,0.00,,,0.00,Wunderground v.1.15,2013-07-05 07:38:00,
2013-07-05 03:44:00,72.0,71.4,30.08,SSE,153,0.0,0.0,98,0.00,,,0.00,Wunderground v.1.15,2013-07-05 07:44:00,
2013-07-05 03:49:00,71.8,71.2,30.08,SSE,153,0.0,0.0,98,0.00,,,0.00,Wunderground v.1.15,2013-07-05 07:49:00,
2013-07-05 03:54:00,71.8,71.2,30.08,SSE,153,0.0,0.0,98,0.00,,,0.00,Wunderground v.1.15,2013-07-05 07:54:00,
2013-07-05 03:59:00,71.8,71.2,30.08,SSE,153,0.0,0.0,98,0.00,,,0.00,Wunderground v.1.15,2013-07-05 07:59:00,
2013-07-05 04:04:00,71.8,71.2,30.08,SSE,153,0.0,0.0,98,0.00,,,0.00,Wunderground v.1.15,2013-07-05 08:04:00,
2013-07-05 04:10:00,72.0,71.7,30.08,SSE,153,0.0,0.0,99,0.00,,,0.00,Wunderground v.1.15,2013-07-05 08:10:00,
2013-07-05 04:15:00,72.1,71.8,30.08,SSE,153,0.0,0.0,99,0.00,,,0.00,Wunderground v.1.15,2013-07-05 08:15:00,
2013-07-05 04:21:00,72.3,71.7,30.08,SSE,153,0.0,0.0,98,0.00,,,0.00,Wunderground v.1.15,2013-07-05 08:21:00,
2013-07-05 04:26:00,72.3,71.7,30.08,SSE,153,0.0,0.0,98,0.00,,,0.00,Wunderground v.1.15,2013-07-05 08:26:00,
2013-07-05 04:31:00,72.5,71.9,30.08,SSE,153,0.0,0.0,98,0.00,,,0.00,Wunderground v.1.15,2013-07-05 08:31:00,
2013-07-05 04:36:00,72.8,71.9,30.08,SSE,153,0.0,0.0,97,0.00,,,0.00,Wunderground v.1.15,2013-07-05 08:36:00,
2013-07-05 04:41:00,73.0,71.8,30.09,SSE,153,0.0,0.0,96,0.00,,,0.00,Wunderground v.1.15,2013-07-05 08:41:00,
2013-07-05 04:47:00,73.0,71.8,30.09,SSE,153,0.0,0.0,96,0.00,,,0.00,Wunderground v.1.15,2013-07-05 08:47:00,
2013-07-05 04:52:00,73.0,71.8,30.09,SSE,153,0.0,0.0,96,0.00,,,0.00,Wunderground v.1.15,2013-07-05 08:52:00,
2013-07-05 04:57:00,73.2,71.7,30.09,SSE,153,0.0,0.0,95,0.00,,,0.00,Wunderground v.1.15,2013-07-05 08:57:00,
2013-07-05 05:02:00,73.2,71.7,30.09,SSE,153,0.0,0.0,95,0.00,,,0.00,Wunderground v.1.15,2013-07-05 09:02:00,
2013-07-05 05:08:00,73.2,71.7,30.09,SSE,153,0.0,0.0,95,0.00,,,0.00,Wunderground v.1.15,2013-07-05 09:08:00,
2013-07-05 05:13:00,73.2,71.7,30.09,SSE,153,0.0,0.0,95,0.00,,,0.00,Wunderground v.1.15,2013-07-05 09:13:00,
2013-07-05 05:18:00,73.2,71.7,30.09,SSE,153,0.0,0.0,95,0.00,,,0.00,Wunderground v.1.15,2013-07-05 09:18:00,
2013-07-05 05:23:00,73.0,71.5,30.09,SSE,153,0.0,0.0,95,0.00,,,0.00,Wunderground v.1.15,2013-07-05 09:23:00,
2013-07-05 05:29:00,73.0,71.5,30.09,SSE,153,0.0,0.0,95,0.00,,,0.00,Wunderground v.1.15,2013-07-05 09:29:00,
2013-07-05 05:34:00,72.7,71.5,30.09,SSE,153,0.0,0.0,96,0.00,,,0.00,Wunderground v.1.15,2013-07-05 09:34:00,
2013-07-05 05:39:00,72.7,71.5,30.09,SSE,153,0.0,0.0,96,0.00,,,0.00,Wunderground v.1.15,2013-07-05 09:39:00,
2013-07-05 05:44:00,72.5,71.6,30.10,SSE,153,0.0,0.0,97,0.00,,,0.00,Wunderground v.1.15,2013-07-05 09:44:00,
2013-07-05 05:49:00,72.5,71.6,30.10,SSE,153,0.0,0.0,97,0.00,,,0.00,Wunderground v.1.15,2013-07-05 09:49:00,
2013-07-05 05:55:00,72.5,71.6,30.10,SSE,153,0.0,0.0,97,0.00,,,0.00,Wunderground v.1.15,2013-07-05 09:55:00,
2013-07-05 06:00:00,72.7,71.8,30.10,SSE,153,0.0,0.0,97,0.00,,,0.00,Wunderground v.1.15,2013-07-05 10:00:00,
2013-07-05 06:05:00,72.7,71.8,30.10,SSE,153,0.0,0.0,97,0.00,,,0.00,Wunderground v.1.15,2013-07-05 10:05:00,
2013-07-05 06:11:00,72.7,71.8,30.10,SSE,153,0.0,0.0,97,0.00,,,0.00,Wunderground v.1.15,2013-07-05 10:11:00,
2013-07-05 06:16:00,72.7,71.8,30.10,SSE,153,0.0,0.0,97,0.00,,,0.00,Wunderground v.1.15,2013-07-05 10:16:00,
2013-07-05 06:21:00,72.7,71.8,30.10,SSE,153,0.0,0.0,97,0.00,,,0.00,Wunderground v.1.15,2013-07-05 10:21:00,
2013-07-05 06:26:00,72.8,71.9,30.10,SSE,153,0.0,0.0,97,0.00,,,0.00,Wunderground v.1.15,2013-07-05 10:26:00,
2013-07-05 06:31:00,73.0,72.1,30.10,SSE,153,0.0,0.0,97,0.00,,,0.00,Wunderground v.1.15,2013-07-05 10:31:00,
2013-07-05 06:37:00,73.0,72.1,30.10,SSE,153,0.0,0.0,97,0.00,,,0.00,Wunderground v.1.15,2013-07-05 10:37:00,
2013-07-05 06:42:00,73.0,72.1,30.10,SSE,153,0.0,0.0,97,0.00,,,0.00,Wunderground v.1.15,2013-07-05 10:42:00,
2013-07-05 06:47:00,73.2,72.3,30.10,SSE,153,0.0,0.0,97,0.00,,,0.00,Wunderground v.1.15,2013-07-05 10:47:00,
2013-07-05 06:52:00,73.2,72.3,30.10,SSE,153,0.0,0.0,97,0.00,,,0.00,Wunderground v.1.15,2013-07-05 10:52:00,
2013-07-05 06:57:00,73.3,72.4,30.10,SSE,153,0.0,0.0,97,0.00,,,0.00,Wunderground v.1.15,2013-07-05 10:57:00,
2013-07-05 07:03:00,73.5,72.3,30.10,SSE,153,0.0,0.0,96,0.00,,,0.00,Wunderground v.1.15,2013-07-05 11:03:00,
2013-07-05 07:08:00,73.7,72.5,30.10,SSE,153,0.0,0.0,96,0.00,,,0.00,Wunderground v.1.15,2013-07-05 11:08:00,
2013-07-05 07:13:00,74.0,72.8,30.11,SSE,153,0.0,0.0,96,0.00,,,0.00,Wunderground v.1.15,2013-07-05 11:13:00,
2013-07-05 07:18:00,74.2,72.7,30.11,SSE,153,0.0,0.0,95,0.00,,,0.00,Wunderground v.1.15,2013-07-05 11:18:00,
2013-07-05 07:23:00,74.6,73.1,30.11,SSE,153,0.0,0.0,95,0.00,,,0.00,Wunderground v.1.15,2013-07-05 11:23:00,
2013-07-05 07:28:00,74.7,72.9,30.10,SSE,155,0.0,0.0,94,0.00,,,0.00,Wunderground v.1.15,2013-07-05 11:28:00,
2013-07-05 07:34:00,74.9,72.7,30.10,SSE,160,0.0,0.0,93,0.00,,,0.00,Wunderground v.1.15,2013-07-05 11:34:00,
2013-07-05 07:39:00,75.3,73.1,30.10,SSE,156,0.0,0.0,93,0.00,,,0.00,Wunderground v.1.15,2013-07-05 11:39:00,
2013-07-05 07:44:00,75.4,72.9,30.10,SSE,153,0.0,0.0,92,0.00,,,0.00,Wunderground v.1.15,2013-07-05 11:44:00,
2013-07-05 07:49:00,75.6,73.1,30.10,SE,145,0.0,0.0,92,0.00,,,0.00,Wunderground v.1.15,2013-07-05 11:49:00,
2013-07-05 07:54:00,76.1,73.0,30.10,SE,145,0.0,0.0,90,0.00,,,0.00,Wunderground v.1.15,2013-07-05 11:54:00,
2013-07-05 08:00:00,76.3,72.8,30.10,SE,145,0.0,0.0,89,0.00,,,0.00,Wunderground v.1.15,2013-07-05 12:00:00,
2013-07-05 08:06:00,76.5,73.0,30.10,SE,145,0.0,0.0,89,0.00,,,0.00,Wunderground v.1.15,2013-07-05 12:06:00,
2013-07-05 08:11:00,76.7,72.9,30.10,SE,145,0.0,0.0,88,0.00,,,0.00,Wunderground v.1.15,2013-07-05 12:11:00,
2013-07-05 08:16:00,77.0,73.2,30.10,SE,145,0.0,0.0,88,0.00,,,0.00,Wunderground v.1.15,2013-07-05 12:16:00,
2013-07-05 08:21:00,77.2,73.4,30.10,SE,145,0.0,0.0,88,0.00,,,0.00,Wunderground v.1.15,2013-07-05 12:21:00,
2013-07-05 08:26:00,77.6,73.1,30.10,SE,145,0.0,0.0,86,0.00,,,0.00,Wunderground v.1.15,2013-07-05 12:26:00,
2013-07-05 08:32:00,77.9,73.0,30.10,ESE,110,0.0,0.0,85,0.00,,,0.00,Wunderground v.1.15,2013-07-05 12:32:00,
2013-07-05 08:37:00,78.3,73.4,30.10,ESE,108,0.0,0.0,85,0.00,,,0.00,Wunderground v.1.15,2013-07-05 12:37:00,
2013-07-05 08:42:00,78.5,73.6,30.10,ESE,111,0.0,0.0,85,0.00,,,0.00,Wunderground v.1.15,2013-07-05 12:42:00,
2013-07-05 08:47:00,78.6,73.7,30.10,ESE,111,0.0,0.0,85,0.00,,,0.00,Wunderground v.1.15,2013-07-05 12:47:00,
2013-07-05 08:52:00,78.8,73.2,30.10,ESE,110,0.0,0.0,83,0.00,,,0.00,Wunderground v.1.15,2013-07-05 12:52:00,
2013-07-05 08:57:00,79.0,73.7,30.10,ESE,111,0.0,0.0,84,0.00,,,0.00,Wunderground v.1.15,2013-07-05 12:57:00,
2013-07-05 09:02:00,79.2,73.9,30.10,ESE,111,0.0,0.0,84,0.00,,,0.00,Wunderground v.1.15,2013-07-05 13:02:00,
2013-07-05 09:07:00,79.4,74.5,30.10,ESE,111,0.0,0.0,85,0.00,,,0.00,Wunderground v.1.15,2013-07-05 13:07:00,
2013-07-05 09:12:00,79.9,74.3,30.10,ESE,112,0.0,1.0,83,0.00,,,0.00,Wunderground v.1.15,2013-07-05 13:12:00,
2013-07-05 09:18:00,80.7,72.8,30.10,ESE,112,0.0,0.0,77,0.00,,,0.00,Wunderground v.1.15,2013-07-05 13:18:00,
2013-07-05 09:23:00,80.5,74.5,30.10,SW,214,1.0,1.0,82,0.00,,,0.00,Wunderground v.1.15,2013-07-05 13:23:00,
2013-07-05 09:28:00,81.2,73.7,30.09,SW,214,0.0,0.0,78,0.00,,,0.00,Wunderground v.1.15,2013-07-05 13:28:00,
2013-07-05 09:33:00,81.2,74.8,30.09,SW,214,0.0,1.0,81,0.00,,,0.00,Wunderground v.1.15,2013-07-05 13:33:00,
2013-07-05 09:38:00,81.1,74.3,30.09,SW,214,0.0,1.0,80,0.00,,,0.00,Wunderground v.1.15,2013-07-05 13:38:00,
2013-07-05 09:43:00,81.6,73.3,30.09,ESE,121,0.0,1.0,76,0.00,,,0.00,Wunderground v.1.15,2013-07-05 13:43:00,
2013-07-05 09:49:00,82.0,73.7,30.09,ESE,121,0.0,0.0,76,0.00,,,0.00,Wunderground v.1.15,2013-07-05 13:49:00,
2013-07-05 09:54:00,82.0,73.7,30.09,ESE,121,0.0,0.0,76,0.00,,,0.00,Wunderground v.1.15,2013-07-05 13:54:00,
2013-07-05 09:59:00,82.2,73.1,30.09,ESE,102,1.0,1.0,74,0.00,,,0.00,Wunderground v.1.15,2013-07-05 13:59:00,
2013-07-05 10:04:00,82.2,74.3,30.09,ESE,102,0.0,0.0,77,0.00,,,0.00,Wunderground v.1.15,2013-07-05 14:04:00,
2013-07-05 10:09:00,82.4,74.8,30.09,ESE,102,0.0,0.0,78,0.00,,,0.00,Wunderground v.1.15,2013-07-05 14:09:00,
2013-07-05 10:16:00,83.2,75.6,30.09,SW,217,0.0,1.0,78,0.00,,,0.00,Wunderground v.1.15,2013-07-05 14:16:00,
2013-07-05 10:22:00,83.8,73.8,30.09,SW,217,0.0,1.0,72,0.00,,,0.00,Wunderground v.1.15,2013-07-05 14:22:00,
2013-07-05 10:27:00,83.4,74.6,30.08,SW,217,0.0,0.0,75,0.00,,,0.00,Wunderground v.1.15,2013-07-05 14:27:00,
2013-07-05 10:32:00,83.8,73.4,30.08,SW,222,0.0,1.0,71,0.00,,,0.00,Wunderground v.1.15,2013-07-05 14:32:00,
2013-07-05 10:37:00,84.7,74.3,30.08,SW,220,0.0,0.0,71,0.00,,,0.00,Wunderground v.1.15,2013-07-05 14:37:00,
2013-07-05 10:42:00,84.7,72.1,30.08,SW,220,0.0,0.0,66,0.00,,,0.00,Wunderground v.1.15,2013-07-05 14:42:00,
2013-07-05 10:47:00,85.3,72.6,30.08,SW,218,0.0,0.0,66,0.00,,,0.00,Wunderground v.1.15,2013-07-05 14:47:00,
2013-07-05 10:52:00,85.5,75.4,30.08,South,169,0.0,2.0,72,0.00,,,0.00,Wunderground v.1.15,2013-07-05 14:52:00,
2013-07-05 10:57:00,86.1,76.0,30.08,South,169,1.0,1.0,72,0.00,,,0.00,Wunderground v.1.15,2013-07-05 14:57:00,
2013-07-05 11:02:00,85.5,71.9,30.08,SSE,167,0.0,1.0,64,0.00,,,0.00,Wunderground v.1.15,2013-07-05 15:02:00,
2013-07-05 11:07:00,85.7,73.0,30.08,SSE,167,0.0,0.0,66,0.00,,,0.00,Wunderground v.1.15,2013-07-05 15:07:00,
2013-07-05 11:12:00,85.5,75.4,30.08,SSE,166,0.0,0.0,72,0.00,,,0.00,Wunderground v.1.15,2013-07-05 15:12:00,
2013-07-05 11:17:00,84.9,74.9,30.08,SSE,167,0.0,0.0,72,0.00,,,0.00,Wunderground v.1.15,2013-07-05 15:17:00,
2013-07-05 11:23:00,85.7,75.6,30.08,SSE,166,0.0,0.0,72,0.00,,,0.00,Wunderground v.1.15,2013-07-05 15:23:00,
2013-07-05 11:28:00,85.1,75.1,30.07,SSE,166,0.0,0.0,72,0.00,,,0.00,Wunderground v.1.15,2013-07-05 15:28:00,
2013-07-05 11:33:00,85.5,74.6,30.07,SSE,167,0.0,0.0,70,0.00,,,0.00,Wunderground v.1.15,2013-07-05 15:33:00,
2013-07-05 11:38:00,85.7,77.7,30.07,SSE,166,0.0,0.0,77,0.00,,,0.00,Wunderground v.1.15,2013-07-05 15:38:00,
2013-07-05 11:43:00,86.1,76.0,30.07,SSE,166,0.0,0.0,72,0.00,,,0.00,Wunderground v.1.15,2013-07-05 15:43:00,
2013-07-05 11:49:00,86.1,76.0,30.07,SSE,166,0.0,0.0,72,0.00,,,0.00,Wunderground v.1.15,2013-07-05 15:49:00,
2013-07-05 11:55:00,85.7,75.6,30.06,East,81,1.0,1.0,72,0.00,,,0.00,Wunderground v.1.15,2013-07-05 15:55:00,
2013-07-05 12:00:00,85.3,76.1,30.06,East,81,0.0,1.0,74,0.00,,,0.00,Wunderground v.1.15,2013-07-05 16:00:00,
2013-07-05 12:05:00,87.2,76.6,30.06,East,81,0.0,0.0,71,0.00,,,0.00,Wunderground v.1.15,2013-07-05 16:05:00,
2013-07-05 12:10:00,88.6,75.8,30.06,ENE,77,0.0,0.0,66,0.00,,,0.00,Wunderground v.1.15,2013-07-05 16:10:00,
2013-07-05 12:11:00,88.8,76.0,30.06,ENE,78,0.0,0.0,66,0.00,,,0.00,Wunderground v.1.15,2013-07-05 16:11:00,
2013-07-05 12:17:00,88.4,74.2,30.06,ENE,78,0.0,0.0,63,0.00,,,0.00,Wunderground v.1.15,2013-07-05 16:17:00,
2013-07-05 12:22:00,89.0,76.2,30.06,South,187,0.0,1.0,66,0.00,,,0.00,Wunderground v.1.15,2013-07-05 16:22:00,
2013-07-05 12:27:00,89.5,76.2,30.06,South,190,0.0,1.0,65,0.00,,,0.00,Wunderground v.1.15,2013-07-05 16:27:00,
2013-07-05 12:32:00,87.4,75.5,30.06,South,190,0.0,1.0,68,0.00,,,0.00,Wunderground v.1.15,2013-07-05 16:32:00,
2013-07-05 12:37:00,87.8,75.0,30.06,South,190,0.0,1.0,66,0.00,,,0.00,Wunderground v.1.15,2013-07-05 16:37:00,
2013-07-05 12:38:00,88.0,75.7,30.06,South,190,0.0,1.0,67,0.00,,,0.00,Wunderground v.1.15,2013-07-05 16:38:00,
2013-07-05 12:43:00,89.0,77.1,30.06,South,190,0.0,1.0,68,0.00,,,0.00,Wunderground v.1.15,2013-07-05 16:43:00,
2013-07-05 12:48:00,89.7,76.8,30.06,South,190,0.0,1.0,66,0.00,,,0.00,Wunderground v.1.15,2013-07-05 16:48:00,
2013-07-05 12:53:00,90.3,76.0,30.06,South,190,0.0,2.0,63,0.00,,,0.00,Wunderground v.1.15,2013-07-05 16:53:00,
2013-07-05 12:58:00,90.7,74.4,30.05,ESE,102,0.0,1.0,59,0.00,,,0.00,Wunderground v.1.15,2013-07-05 16:58:00,
2013-07-05 13:03:00,91.0,73.7,30.05,NE,36,1.0,2.0,57,0.00,,,0.00,Wunderground v.1.15,2013-07-05 17:03:00,
2013-07-05 13:08:00,90.1,77.7,30.05,WNW,297,0.0,2.0,67,0.00,,,0.00,Wunderground v.1.15,2013-07-05 17:08:00,
2013-07-05 13:13:00,90.1,77.2,30.04,WNW,297,1.0,2.0,66,0.00,,,0.00,Wunderground v.1.15,2013-07-05 17:13:00,
2013-07-05 13:18:00,90.3,74.5,30.04,SSW,194,1.0,2.0,60,0.00,,,0.00,Wunderground v.1.15,2013-07-05 17:18:00,
2013-07-05 13:23:00,90.7,74.4,30.04,South,190,0.0,2.0,59,0.00,,,0.00,Wunderground v.1.15,2013-07-05 17:23:00,
2013-07-05 13:28:00,91.2,74.9,30.03,South,176,0.0,2.0,59,0.00,,,0.00,Wunderground v.1.15,2013-07-05 17:28:00,
2013-07-05 13:29:00,91.2,74.9,30.03,South,176,0.0,2.0,59,0.00,,,0.00,Wunderground v.1.15,2013-07-05 17:29:00,
2013-07-05 13:34:00,91.4,75.1,30.03,SE,146,0.0,0.0,59,0.00,,,0.00,Wunderground v.1.15,2013-07-05 17:34:00,
2013-07-05 13:39:00,91.0,75.7,30.03,SSW,203,0.0,2.0,61,0.00,,,0.00,Wunderground v.1.15,2013-07-05 17:39:00,
2013-07-05 13:45:00,91.6,76.2,30.03,SSW,203,2.0,2.0,61,0.00,,,0.00,Wunderground v.1.15,2013-07-05 17:45:00,
2013-07-05 13:50:00,91.6,75.2,30.03,ESE,122,0.0,2.0,59,0.00,,,0.00,Wunderground v.1.15,2013-07-05 17:50:00,
2013-07-05 13:55:00,91.8,73.9,30.03,ESE,122,0.0,0.0,56,0.00,,,0.00,Wunderground v.1.15,2013-07-05 17:55:00,
2013-07-05 14:00:00,92.3,75.9,30.03,NNE,23,1.0,2.0,59,0.00,,,0.00,Wunderground v.1.15,2013-07-05 18:00:00,
2013-07-05 14:05:00,92.5,76.6,30.03,ESE,104,0.0,1.0,60,0.00,,,0.00,Wunderground v.1.15,2013-07-05 18:05:00,
2013-07-05 14:11:00,91.6,74.7,30.03,South,182,1.0,2.0,58,0.00,,,0.00,Wunderground v.1.15,2013-07-05 18:11:00,
2013-07-05 14:16:00,90.3,73.0,30.03,South,182,0.0,1.0,57,0.00,,,0.00,Wunderground v.1.15,2013-07-05 18:16:00,
2013-07-05 14:21:00,90.5,73.7,30.03,South,182,0.0,1.0,58,0.00,,,0.00,Wunderground v.1.15,2013-07-05 18:21:00,
2013-07-05 14:26:00,91.8,73.9,30.03,South,182,0.0,0.0,56,0.00,,,0.00,Wunderground v.1.15,2013-07-05 18:26:00,
2013-07-05 14:31:00,90.5,75.7,30.03,South,182,1.0,1.0,62,0.00,,,0.00,Wunderground v.1.15,2013-07-05 18:31:00,
2013-07-05 14:36:00,91.2,76.4,30.03,SE,129,1.0,2.0,62,0.00,,,0.00,Wunderground v.1.15,2013-07-05 18:36:00,
2013-07-05 14:41:00,92.1,71.9,30.02,SE,135,1.0,2.0,52,0.00,,,0.00,Wunderground v.1.15,2013-07-05 18:41:00,
2013-07-05 14:46:00,92.3,73.8,30.02,SE,128,1.0,1.0,55,0.00,,,0.00,Wunderground v.1.15,2013-07-05 18:46:00,
2013-07-05 14:51:00,91.2,74.9,30.02,SE,128,0.0,1.0,59,0.00,,,0.00,Wunderground v.1.15,2013-07-05 18:51:00,
2013-07-05 14:56:00,91.4,74.0,30.02,SE,128,0.0,1.0,57,0.00,,,0.00,Wunderground v.1.15,2013-07-05 18:56:00,
2013-07-05 15:02:00,91.6,74.7,30.02,SSW,193,0.0,1.0,58,0.00,,,0.00,Wunderground v.1.15,2013-07-05 19:02:00,
2013-07-05 15:07:00,92.1,74.7,30.02,SSW,193,0.0,0.0,57,0.00,,,0.00,Wunderground v.1.15,2013-07-05 19:07:00,
2013-07-05 15:12:00,91.0,73.7,30.01,SSW,193,1.0,2.0,57,0.00,,,0.00,Wunderground v.1.15,2013-07-05 19:12:00,
2013-07-05 15:17:00,89.5,72.8,30.01,SSW,193,0.0,1.0,58,0.00,,,0.00,Wunderground v.1.15,2013-07-05 19:17:00,
2013-07-05 15:22:00,90.3,76.0,30.01,NE,49,2.0,2.0,63,0.00,,,0.00,Wunderground v.1.15,2013-07-05 19:22:00,
2013-07-05 15:27:00,89.9,75.1,30.01,South,191,0.0,2.0,62,0.00,,,0.00,Wunderground v.1.15,2013-07-05 19:27:00,
2013-07-05 15:33:00,90.5,75.7,30.01,SSE,158,0.0,2.0,62,0.00,,,0.00,Wunderground v.1.15,2013-07-05 19:33:00,
2013-07-05 15:38:00,90.3,72.5,30.01,SSE,160,0.0,1.0,56,0.00,,,0.00,Wunderground v.1.15,2013-07-05 19:38:00,
2013-07-05 15:43:00,89.5,71.7,30.01,SSW,207,0.0,2.0,56,0.00,,,0.00,Wunderground v.1.15,2013-07-05 19:43:00,
2013-07-05 15:49:00,90.1,74.8,30.01,South,191,0.0,1.0,61,0.00,,,0.00,Wunderground v.1.15,2013-07-05 19:49:00,
2013-07-05 15:54:00,90.1,73.8,30.01,South,191,0.0,0.0,59,0.00,,,0.00,Wunderground v.1.15,2013-07-05 19:54:00,
2013-07-05 15:59:00,89.5,76.2,30.00,SSW,211,0.0,1.0,65,0.00,,,0.00,Wunderground v.1.15,2013-07-05 19:59:00,
2013-07-05 16:04:00,89.0,76.6,30.00,NE,35,0.0,0.0,67,0.00,,,0.00,Wunderground v.1.15,2013-07-05 20:04:00,
2013-07-05 16:09:00,89.0,74.3,30.00,ESE,107,0.0,1.0,62,0.00,,,0.00,Wunderground v.1.15,2013-07-05 20:09:00,
2013-07-05 16:14:00,88.0,74.3,30.00,ESE,107,0.0,0.0,64,0.00,,,0.00,Wunderground v.1.15,2013-07-05 20:14:00,
2013-07-05 16:19:00,88.2,74.5,30.00,East,86,0.0,1.0,64,0.00,,,0.00,Wunderground v.1.15,2013-07-05 20:19:00,
2013-07-05 16:20:00,88.2,74.5,30.00,East,84,0.0,1.0,64,0.00,,,0.00,Wunderground v.1.15,2013-07-05 20:20:00,
2013-07-05 16:25:00,87.4,74.2,30.00,East,84,0.0,0.0,65,0.00,,,0.00,Wunderground v.1.15,2013-07-05 20:25:00,
2013-07-05 16:30:00,87.0,73.8,30.00,WNW,286,1.0,2.0,65,0.00,,,0.00,Wunderground v.1.15,2013-07-05 20:30:00,
2013-07-05 16:35:00,87.0,73.8,30.00,WNW,286,0.0,0.0,65,0.00,,,0.00,Wunderground v.1.15,2013-07-05 20:35:00,
2013-07-05 16:41:00,87.0,74.3,30.00,WNW,286,0.0,1.0,66,0.00,,,0.00,Wunderground v.1.15,2013-07-05 20:41:00,
2013-07-05 16:46:00,87.0,73.3,30.00,WNW,286,0.0,1.0,64,0.00,,,0.00,Wunderground v.1.15,2013-07-05 20:46:00,
2013-07-05 16:51:00,87.0,73.3,30.00,WNW,285,0.0,1.0,64,0.00,,,0.00,Wunderground v.1.15,2013-07-05 20:51:00,
2013-07-05 16:57:00,86.3,76.2,30.00,SE,142,0.0,4.0,72,0.00,,,0.00,Wunderground v.1.15,2013-07-05 20:57:00,
2013-07-05 17:02:00,86.7,76.6,30.00,ENE,60,0.0,4.0,72,0.00,,,0.00,Wunderground v.1.15,2013-07-05 21:02:00,
2013-07-05 17:07:00,86.7,73.5,30.00,South,180,0.0,2.0,65,0.00,,,0.00,Wunderground v.1.15,2013-07-05 21:07:00,
2013-07-05 17:12:00,86.3,74.0,29.99,South,180,0.0,2.0,67,0.00,,,0.00,Wunderground v.1.15,2013-07-05 21:12:00,
2013-07-05 17:17:00,86.1,73.4,29.99,South,180,0.0,0.0,66,0.00,,,0.00,Wunderground v.1.15,2013-07-05 21:17:00,
2013-07-05 17:22:00,86.3,73.6,29.99,South,182,0.0,0.0,66,0.00,,,0.00,Wunderground v.1.15,2013-07-05 21:22:00,
2013-07-05 17:28:00,86.5,73.3,29.99,South,182,0.0,1.0,65,0.00,,,0.00,Wunderground v.1.15,2013-07-05 21:28:00,
2013-07-05 17:33:00,86.5,74.7,29.99,SSE,159,0.0,2.0,68,0.00,,,0.00,Wunderground v.1.15,2013-07-05 21:33:00,
2013-07-05 17:38:00,86.3,74.0,29.99,SE,138,0.0,4.0,67,0.00,,,0.00,Wunderground v.1.15,2013-07-05 21:38:00,
2013-07-05 17:43:00,86.1,75.2,29.99,SE,138,0.0,4.0,70,0.00,,,0.00,Wunderground v.1.15,2013-07-05 21:43:00,
2013-07-05 17:48:00,86.1,74.3,29.99,SE,126,0.0,2.0,68,0.00,,,0.00,Wunderground v.1.15,2013-07-05 21:48:00,
2013-07-05 17:53:00,86.3,74.0,29.99,SE,126,0.0,2.0,67,0.00,,,0.00,Wunderground v.1.15,2013-07-05 21:53:00,
2013-07-05 17:54:00,86.3,74.0,29.99,SE,126,1.0,1.0,67,0.00,,,0.00,Wunderground v.1.15,2013-07-05 21:54:00,
2013-07-05 17:59:00,86.3,74.0,29.98,East,81,0.0,1.0,67,0.00,,,0.00,Wunderground v.1.15,2013-07-05 21:59:00,
2013-07-05 18:04:00,86.3,74.0,29.98,SE,143,0.0,0.0,67,0.00,,,0.00,Wunderground v.1.15,2013-07-05 22:04:00,
2013-07-05 18:09:00,86.1,74.3,29.98,SE,143,0.0,0.0,68,0.00,,,0.00,Wunderground v.1.15,2013-07-05 22:09:00,
2013-07-05 18:14:00,86.3,73.6,29.98,SE,143,0.0,0.0,66,0.00,,,0.00,Wunderground v.1.15,2013-07-05 22:14:00,
2013-07-05 18:20:00,85.9,73.2,29.98,SE,139,0.0,1.0,66,0.00,,,0.00,Wunderground v.1.15,2013-07-05 22:20:00,
2013-07-05 18:25:00,85.7,74.4,29.99,NW,307,0.0,2.0,69,0.00,,,0.00,Wunderground v.1.15,2013-07-05 22:25:00,
2013-07-05 18:30:00,85.5,73.7,29.99,NW,307,1.0,2.0,68,0.00,,,0.00,Wunderground v.1.15,2013-07-05 22:30:00,
2013-07-05 18:35:00,85.3,74.4,29.99,NW,309,0.0,0.0,70,0.00,,,0.00,Wunderground v.1.15,2013-07-05 22:35:00,
2013-07-05 18:40:00,85.3,73.5,29.99,South,179,0.0,2.0,68,0.00,,,0.00,Wunderground v.1.15,2013-07-05 22:40:00,
2013-07-05 18:46:00,85.5,74.2,29.99,SSE,159,1.0,1.0,69,0.00,,,0.00,Wunderground v.1.15,2013-07-05 22:46:00,
2013-07-05 18:51:00,85.1,74.2,29.99,SSE,159,0.0,1.0,70,0.00,,,0.00,Wunderground v.1.15,2013-07-05 22:51:00,
2013-07-05 18:56:00,84.5,73.6,29.99,ESE,104,2.0,2.0,70,0.00,,,0.00,Wunderground v.1.15,2013-07-05 22:56:00,
2013-07-05 19:01:00,84.3,72.6,29.99,East,95,0.0,2.0,68,0.00,,,0.00,Wunderground v.1.15,2013-07-05 23:01:00,
2013-07-05 19:06:00,84.1,73.3,29.99,East,95,0.0,1.0,70,0.00,,,0.00,Wunderground v.1.15,2013-07-05 23:06:00,
2013-07-05 19:11:00,84.0,72.7,29.99,East,95,0.0,1.0,69,0.00,,,0.00,Wunderground v.1.15,2013-07-05 23:11:00,
2013-07-05 19:16:00,83.4,72.2,29.99,East,95,0.0,0.0,69,0.00,,,0.00,Wunderground v.1.15,2013-07-05 23:16:00,
2013-07-05 19:21:00,82.8,72.4,29.99,East,95,0.0,1.0,71,0.00,,,0.00,Wunderground v.1.15,2013-07-05 23:21:00,
2013-07-05 19:26:00,82.8,73.3,29.98,East,95,0.0,0.0,73,0.00,,,0.00,Wunderground v.1.15,2013-07-05 23:26:00,
2013-07-05 19:31:00,82.4,74.5,29.98,East,95,0.0,0.0,77,0.00,,,0.00,Wunderground v.1.15,2013-07-05 23:31:00,
2013-07-05 19:36:00,81.6,74.5,29.98,East,95,0.0,0.0,79,0.00,,,0.00,Wunderground v.1.15,2013-07-05 23:36:00,
2013-07-05 19:38:00,81.2,74.1,29.98,East,95,0.0,0.0,79,0.00,,,0.00,Wunderground v.1.15,2013-07-05 23:38:00,
2013-07-05 19:43:00,80.9,73.4,29.98,East,95,0.0,0.0,78,0.00,,,0.00,Wunderground v.1.15,2013-07-05 23:43:00,
2013-07-05 19:48:00,80.5,74.1,29.98,East,95,0.0,0.0,81,0.00,,,0.00,Wunderground v.1.15,2013-07-05 23:48:00,
2013-07-05 19:53:00,80.1,74.1,29.98,East,95,0.0,0.0,82,0.00,,,0.00,Wunderground v.1.15,2013-07-05 23:53:00,
2013-07-05 19:58:00,79.8,73.8,29.98,East,95,0.0,0.0,82,0.00,,,0.00,Wunderground v.1.15,2013-07-05 23:58:00,
2013-07-05 20:03:00,79.6,73.6,29.98,East,95,0.0,0.0,82,0.00,,,0.00,Wunderground v.1.15,2013-07-06 00:03:00,
2013-07-05 20:08:00,79.4,73.8,29.98,East,95,0.0,0.0,83,0.00,,,0.00,Wunderground v.1.15,2013-07-06 00:08:00,
2013-07-05 20:13:00,79.2,73.6,29.98,East,95,0.0,0.0,83,0.00,,,0.00,Wunderground v.1.15,2013-07-06 00:13:00,
2013-07-05 20:18:00,79.2,73.9,29.98,East,95,0.0,0.0,84,0.00,,,0.00,Wunderground v.1.15,2013-07-06 00:18:00,
2013-07-05 20:19:00,79.2,73.9,29.98,East,95,0.0,0.0,84,0.00,,,0.00,Wunderground v.1.15,2013-07-06 00:19:00,
2013-07-05 20:24:00,78.8,73.6,29.98,East,95,0.0,0.0,84,0.00,,,0.00,Wunderground v.1.15,2013-07-06 00:24:00,
2013-07-05 20:29:00,78.5,74.0,29.98,East,95,0.0,0.0,86,0.00,,,0.00,Wunderground v.1.15,2013-07-06 00:29:00,
2013-07-05 20:34:00,78.3,73.8,29.98,East,95,0.0,0.0,86,0.00,,,0.00,Wunderground v.1.15,2013-07-06 00:34:00,
2013-07-05 20:40:00,78.1,74.3,29.98,East,95,0.0,0.0,88,0.00,,,0.00,Wunderground v.1.15,2013-07-06 00:40:00,
2013-07-05 20:45:00,78.1,74.3,29.98,East,95,0.0,0.0,88,0.00,,,0.00,Wunderground v.1.15,2013-07-06 00:45:00,
2013-07-05 20:50:00,77.9,72.3,29.98,East,95,0.0,0.0,83,0.00,,,0.00,Wunderground v.1.15,2013-07-06 00:50:00,
2013-07-05 20:55:00,77.9,73.0,30.00,East,95,0.0,0.0,85,0.00,,,0.00,Wunderground v.1.15,2013-07-06 00:55:00,
2013-07-05 21:00:00,77.7,72.8,30.00,East,95,0.0,0.0,85,0.00,,,0.00,Wunderground v.1.15,2013-07-06 01:00:00,
2013-07-05 21:05:00,77.4,73.6,30.00,East,95,0.0,0.0,88,0.00,,,0.00,Wunderground v.1.15,2013-07-06 01:05:00,
2013-07-05 21:11:00,77.2,73.4,30.00,East,95,0.0,0.0,88,0.00,,,0.00,Wunderground v.1.15,2013-07-06 01:11:00,
2013-07-05 21:16:00,77.0,73.5,30.00,East,95,0.0,0.0,89,0.00,,,0.00,Wunderground v.1.15,2013-07-06 01:16:00,
2013-07-05 21:21:00,77.0,73.5,30.00,East,95,0.0,0.0,89,0.00,,,0.00,Wunderground v.1.15,2013-07-06 01:21:00,
2013-07-05 21:26:00,77.0,73.2,30.01,East,95,0.0,0.0,88,0.00,,,0.00,Wunderground v.1.15,2013-07-06 01:26:00,
2013-07-05 21:31:00,77.0,73.2,30.01,East,95,0.0,0.0,88,0.00,,,0.00,Wunderground v.1.15,2013-07-06 01:31:00,
2013-07-05 21:36:00,76.8,73.3,30.01,East,95,0.0,0.0,89,0.00,,,0.00,Wunderground v.1.15,2013-07-06 01:36:00,
2013-07-05 21:41:00,76.8,73.6,30.01,East,95,0.0,0.0,90,0.00,,,0.00,Wunderground v.1.15,2013-07-06 01:41:00,
2013-07-05 21:46:00,76.7,73.2,30.01,East,95,0.0,0.0,89,0.00,,,0.00,Wunderground v.1.15,2013-07-06 01:46:00,
2013-07-05 21:52:00,76.8,73.3,30.01,East,95,0.0,0.0,89,0.00,,,0.00,Wunderground v.1.15,2013-07-06 01:52:00,
2013-07-05 21:57:00,76.7,73.2,30.01,East,95,0.0,0.0,89,0.00,,,0.00,Wunderground v.1.15,2013-07-06 01:57:00,
2013-07-05 22:02:00,76.5,73.3,30.01,East,95,0.0,0.0,90,0.00,,,0.00,Wunderground v.1.15,2013-07-06 02:02:00,
2013-07-05 22:07:00,76.3,73.5,30.01,East,95,0.0,0.0,91,0.00,,,0.00,Wunderground v.1.15,2013-07-06 02:07:00,
2013-07-05 22:12:00,76.5,73.7,30.00,East,95,0.0,0.0,91,0.00,,,0.00,Wunderground v.1.15,2013-07-06 02:12:00,
2013-07-05 22:14:00,76.5,73.3,30.00,East,95,0.0,0.0,90,0.00,,,0.00,Wunderground v.1.15,2013-07-06 02:14:00,
2013-07-05 22:19:00,76.5,73.3,30.00,East,95,0.0,0.0,90,0.00,,,0.00,Wunderground v.1.15,2013-07-06 02:19:00,
2013-07-05 22:24:00,76.5,73.7,30.01,East,95,0.0,0.0,91,0.00,,,0.00,Wunderground v.1.15,2013-07-06 02:24:00,
2013-07-05 22:30:00,76.3,73.5,30.01,East,95,0.0,0.0,91,0.00,,,0.00,Wunderground v.1.15,2013-07-06 02:30:00,
2013-07-05 22:35:00,76.3,73.8,30.01,East,95,0.0,0.0,92,0.00,,,0.00,Wunderground v.1.15,2013-07-06 02:35:00,
2013-07-05 22:40:00,76.1,73.9,30.01,East,95,0.0,0.0,93,0.00,,,0.00,Wunderground v.1.15,2013-07-06 02:40:00,
2013-07-05 22:45:00,76.0,73.8,30.01,East,95,0.0,0.0,93,0.00,,,0.00,Wunderground v.1.15,2013-07-06 02:45:00,
2013-07-05 22:51:00,75.8,73.9,30.01,East,95,0.0,0.0,94,0.00,,,0.00,Wunderground v.1.15,2013-07-06 02:51:00,
2013-07-05 22:56:00,75.6,73.8,30.01,East,95,0.0,0.0,94,0.00,,,0.00,Wunderground v.1.15,2013-07-06 02:56:00,
2013-07-05 23:01:00,75.4,73.9,30.01,East,95,0.0,0.0,95,0.00,,,0.00,Wunderground v.1.15,2013-07-06 03:01:00,
2013-07-05 23:06:00,75.3,73.8,30.01,East,95,0.0,0.0,95,0.00,,,0.00,Wunderground v.1.15,2013-07-06 03:06:00,
2013-07-05 23:11:00,75.1,73.6,30.01,East,95,0.0,0.0,95,0.00,,,0.00,Wunderground v.1.15,2013-07-06 03:11:00,
2013-07-05 23:16:00,75.1,73.6,30.01,East,95,0.0,0.0,95,0.00,,,0.00,Wunderground v.1.15,2013-07-06 03:16:00,
2013-07-05 23:21:00,75.1,73.6,30.01,East,97,0.0,0.0,95,0.00,,,0.00,Wunderground v.1.15,2013-07-06 03:21:00,
2013-07-05 23:26:00,74.9,73.4,30.01,East,97,0.0,0.0,95,0.00,,,0.00,Wunderground v.1.15,2013-07-06 03:26:00,
2013-07-05 23:32:00,74.7,73.2,30.01,East,97,0.0,0.0,95,0.00,,,0.00,Wunderground v.1.15,2013-07-06 03:32:00,
2013-07-05 23:37:00,74.4,73.2,30.01,East,97,0.0,0.0,96,0.00,,,0.00,Wunderground v.1.15,2013-07-06 03:37:00,
2013-07-05 23:42:00,74.4,73.2,30.01,East,97,0.0,0.0,96,0.00,,,0.00,Wunderground v.1.15,2013-07-06 03:42:00,
2013-07-05 23:47:00,74.2,73.0,30.01,East,97,0.0,0.0,96,0.00,,,0.00,Wunderground v.1.15,2013-07-06 03:47:00,
2013-07-05 23:52:00,74.0,72.8,30.01,East,97,0.0,0.0,96,0.00,,,0.00,Wunderground v.1.15,2013-07-06 03:52:00,
2013-07-05 23:58:00,74.2,73.0,30.02,East,97,0.0,0.0,96,0.00,,,0.00,Wunderground v.1.15,2013-07-06 03:58:00,